Regional Weather Roundup
Issued by NWS

Home | Current Version | Previous Version | Graphics & Text | Print | Product List | Glossary On
Versions: 1 2 3 4 5 6 7 8 9 10 11 12 13 14 15 16 17 18 19 20 21 22 23 24 25 26 27 28 29 30 31 32 33 34 35 36 37 38 39 40 41 42 43 44 45 46 47 48 49 50
000
ASUS43 KMKX 301211
RWRWI

WISCONSIN REGIONAL WEATHER ROUNDUP
NATIONAL WEATHER SERVICE MILWAUKEE/SULLIVAN WI
700 AM CDT SAT JUL 30 2016

NOTE: "FAIR" INDICATES FEW OR NO CLOUDS BELOW 12,000 FEET WITH NO
SIGNIFICANT WEATHER AND/OR OBSTRUCTIONS TO VISIBILITY.

WIZ001-002-006>008-014>016-023>028-301300-
NORTHWEST WISCONSIN

CITY           SKY/WX    TMP DP  RH WIND       PRES   REMARKS
SUPERIOR ARPT  FOG       54  54 100 CALM      30.07S VSB 1/2
6HR MIN TEMP:  47; 6HR MAX TEMP:  55;

ASHLAND        CLOUDY    55  53  93 CALM      30.08R
6HR MIN TEMP:  49; 6HR MAX TEMP:  55;

HAYWARD        CLOUDY    61  58  90 CALM      30.07S
6HR MIN TEMP:  53; 6HR MAX TEMP:  61;

SIREN          PTSUNNY   57  55  94 CALM      30.06S
CUMBERLAND     MOSUNNY   57  55  94 E3        30.07S
RICE LAKE      MOSUNNY   57  56  94 CALM      30.08R
6HR MIN TEMP:  56; 6HR MAX TEMP:  59;

CHETEK         MOSUNNY   61  59  94 CALM      30.07R
6HR MIN TEMP:  58; 6HR MAX TEMP:  64;

LADYSMITH      SUNNY     59  58  97 E3        30.09S
6HR MIN TEMP:  55; 6HR MAX TEMP:  61;

EAU CLAIRE     SUNNY     62  60  93 NE5       30.05R
6HR MIN TEMP:  59; 6HR MAX TEMP:  63;

MENOMONIE      PTSUNNY   61  60  96 CALM      30.05R
6HR MIN TEMP:  59; 6HR MAX TEMP:  63;

NEW RICHMOND   MOSUNNY   62  60  96 E7        30.05R
6HR MIN TEMP:  58; 6HR MAX TEMP:  62;

OSCEOLA        PTCLDY    62  62 100 CALM      30.07R
6HR MIN TEMP:  58; 6HR MAX TEMP:  62;

$$

WIZ003>005-009-010-017-018-301300-
NORTH CENTRAL WISCONSIN

CITY           SKY/WX    TMP DP  RH WIND       PRES   REMARKS
MANITOWISH WTR MOSUNNY   55  55 100 CALM      30.10S
6HR MIN TEMP:  52; 6HR MAX TEMP:  58;

ARBOR VITAE    CLOUDY    61  59  94 CALM      30.10S
6HR MIN TEMP:  55; 6HR MAX TEMP:  62;

WOODRUFF       CLOUDY    61  59  94 CALM      30.10S
6HR MIN TEMP:  55; 6HR MAX TEMP:  62;

RHINELANDER    SUNNY     58  55  90 CALM      30.11R
6HR MIN TEMP:  52; 6HR MAX TEMP:  58;

EAGLE RIVER    PTSUNNY   55  55 100 CALM      30.10S
6HR MIN TEMP:  49; 6HR MAX TEMP:  57;

LAND O LAKES   SUNNY     54  54 100 CALM      30.12S
6HR MIN TEMP:  49; 6HR MAX TEMP:  55;

PHILLIPS       CLOUDY    56  56 100 CALM      30.09S
6HR MIN TEMP:  54; 6HR MAX TEMP:  58;

TOMAHAWK       MOSUNNY   51  50  97 CALM      30.10F FOG
6HR MIN TEMP:  46; 6HR MAX TEMP:  53;

MEDFORD        SUNNY     57  57 100 NE5       30.08S
6HR MIN TEMP:  52; 6HR MAX TEMP:  57;

MERRILL        SUNNY     55  54  98 CALM      30.09S
6HR MIN TEMP:  48; 6HR MAX TEMP:  55;

$$

WIZ029-030-035-036-043>047-301300-
CENTRAL WISCONSIN

CITY           SKY/WX    TMP DP  RH WIND       PRES   REMARKS
WAUSAU         PTSUNNY   61  54  77 VRB3      30.06R
6HR MIN TEMP:  58; 6HR MAX TEMP:  61;

MOSINEE        PTSUNNY   59  55  88 NE5       30.08R
MARSHFIELD     MOSUNNY   60  55  83 NE6       30.06R
6HR MIN TEMP:  60; 6HR MAX TEMP:  62;

STEVENS POINT  CLOUDY    60  56  88 NE6       30.07R
6HR MIN TEMP:  56; 6HR MAX TEMP:  60;

WAUPACA        CLOUDY    64  62  91 N3        30.05S
6HR MIN TEMP:  64; 6HR MAX TEMP:  67;

WAUTOMA        CLOUDY    63  59  87 NE6       30.05R
6HR MIN TEMP:  63; 6HR MAX TEMP:  65;

WISC RAPIDS    PTSUNNY   63  56  78 E5        30.06R
6HR MIN TEMP:  60; 6HR MAX TEMP:  64;

CAMP DOUGLAS   SUNNY     60  60  99 N3        30.04R
6HR MIN TEMP:  57; 6HR MAX TEMP:  63;

$$

WIZ011>013-019>022-031-037>040-048>050-301300-
NORTHEAST WISCONSIN

CITY           SKY/WX    TMP DP  RH WIND       PRES   REMARKS
ANTIGO         SUNNY     56  55  94 CALM      30.09S
6HR MIN TEMP:  51; 6HR MAX TEMP:  56;

SHAWANO        MOSUNNY   63  58  84 NE6       30.07R
6HR MIN TEMP:  61; 6HR MAX TEMP:  66;

OCONTO         MOSUNNY   61  61 100 NE3       30.06S
STURGEON BAY   SUNNY     66  58  75 E5        30.07R
6HR MIN TEMP:  64; 6HR MAX TEMP:  67;

GREEN BAY      PTSUNNY   61  61 100 N7        30.05R
6HR MIN TEMP:  58; 6HR MAX TEMP:  63;

MANITOWOC      SUNNY     63  60  90 MISG      30.04R
6HR MIN TEMP:  61; 6HR MAX TEMP:  66;

APPLETON       PTSUNNY   63  59  88 NE7       30.03R
CLINTONVILLE   CLOUDY    61  55  82 NE5       30.06R
OSHKOSH        CLOUDY    69  61  75 NE7       30.03R
6HR MIN TEMP:  66; 6HR MAX TEMP:  70;

$$

WIZ032>034-041-042-053>061-301300-
SOUTHWEST WISCONSIN

CITY           SKY/WX    TMP DP  RH WIND       PRES   REMARKS
LA CROSSE      PTSUNNY   68  64  87 NE3       30.02S
6HR MIN TEMP:  66; 6HR MAX TEMP:  68;

SPARTA         PTSUNNY   62  60  94 NE5       30.05S
6HR MIN TEMP:  58; 6HR MAX TEMP:  62;

VIROQUA        PTSUNNY   63  62  96 CALM      30.04R
6HR MIN TEMP:  63; 6HR MAX TEMP:  65;

BOSCOBEL       CLOUDY    64  63  96 CALM      30.02R
6HR MIN TEMP:  61; 6HR MAX TEMP:  64;

PRAIRIE DU CHI   N/A     64  62  93 CALM      30.01R
6HR MIN TEMP:  64; 6HR MAX TEMP:  67;

PLATTEVILLE    PTSUNNY   65  65  99 NE3       30.01S
6HR MIN TEMP:  63; 6HR MAX TEMP:  65;

$$

WIZ056-057-062-063-064-067-068-301300-
SOUTH CENTRAL WISCONSIN

CITY           SKY/WX    TMP DP  RH WIND       PRES   REMARKS
REEDSBURG      CLOUDY    62  62  97 CALM      30.03R
6HR MIN TEMP:  60; 6HR MAX TEMP:  64;

BARABOO/DELLS  CLOUDY    63  59  89 CALM      30.03R
6HR MIN TEMP:  62; 6HR MAX TEMP:  63;

LONE ROCK      CLOUDY    66  61  84 CALM      30.02R
6HR MIN TEMP:  63; 6HR MAX TEMP:  66; 6HR PCP: TRACE;

MINERAL POINT  CLOUDY    64  63  94 NE5       30.02R
MADISON        PTSUNNY   64  59  83 NE6       30.01R
6HR MIN TEMP:  62; 6HR MAX TEMP:  67;

MIDDLETON      CLOUDY    65  61  88 CALM      30.02S
6HR MIN TEMP:  64; 6HR MAX TEMP:  66;

WATERTOWN      CLOUDY    65  63  92 N3        30.01R
6HR MIN TEMP:  63; 6HR MAX TEMP:  66;

MONROE         CLOUDY    64  63  94 NE7       30.00R
JANESVILLE     CLOUDY    68  64  88 NE6       29.99R
$$

WIZ051-052-058>065-066-070>072-301300-
SOUTHEAST WISCONSIN

CITY           SKY/WX    TMP DP  RH WIND       PRES   REMARKS
MILWAUKEE      PTSUNNY   69  64  84 NE7       29.99S
6HR MIN TEMP:  67; 6HR MAX TEMP:  72;

WAUKESHA       MOSUNNY   64  59  82 CALM      30.02R
MILWAUKEE/TIMM PTSUNNY   64  59  82 NE3       30.01R
RACINE         PTSUNNY   70  64  81 NE8       30.01R
6HR MIN TEMP:  66; 6HR MAX TEMP:  71;

BURLINGTON     CLOUDY    65  64  94 CALM      30.00R
6HR MIN TEMP:  62; 6HR MAX TEMP:  65;

KENOSHA        CLOUDY    69  61  75 E7        29.99R
6HR MIN TEMP:  65; 6HR MAX TEMP:  69;

FOND DU LAC    CLOUDY    68  60  75 NE6       30.03R
6HR MIN TEMP:  62; 6HR MAX TEMP:  68;

SHEBOYGAN      SUNNY     63  60  90 NE6       30.02S
6HR MIN TEMP:  59; 6HR MAX TEMP:  64;

WEST BEND      CLOUDY    64  61  88 NE5       30.02R
JUNEAU         CLOUDY    64  61  89 NE5       30.03S
6HR MIN TEMP:  63; 6HR MAX TEMP:  65;

$$

LSZ147-162-301300-
LAKE SUPERIOR

STATION/POSITION TIME  TEMP    WIND        PRES    WAVE
                       AIR SEA DIR/SP/G            HT/PER
                 (UTC) (F)     (DEG/KT/KT) (MB)    (FT/S)
W MID LAKE BUOY  1150   63 61  100/  6/  8 1017.8R   0
DEVILS ISLAND    1200   64     120/  4/  5 1018.2R
PORT WING        1100   54     170/  2/  3 1017.9R
SAXON HARBOR     1100   55     190/  3/  4 1017.9R
$$

LMZ867-665-643>646-301300-
LAKE MICHIGAN

STATION/POSITION TIME  TEMP    WIND        PRES    WAVE
                       AIR SEA DIR/SP/G            HT/PER
                 (UTC) (F)     (DEG/KT/KT) (MC1F1C2F2C3F3C4F4C5F5C6F6C7F7C8M1C9M2Ca!



USA.gov is the U.S. government's official web portal to all federal, state and local government web resources and services.